Find Starlink 33534

NORAD ID: 63499 Int'l Des: 2025-071 Owner: SPXS Country: US Constellation: starlink operational
LEOCIRCULAR

現在のビュー

3D地球を読み込み中...

About Starlink 33534

Starlink 33534 (NORAD 63499) is a starlink constellation satellite (v2 mini) launched Apr 7, 2025 by SPXS of US. It operates in LEO, CIRCULAR orbit with a mass of 575.00 kg.

次回通過

Passes for default location (London). Set your location on the main map for personalized predictions.

高度履歴

Loading altitude history...

軌道要素

1 63499U 25071G 26263.60756561 .00012054 00000-0 39934-3 0 9994
2 63499 53.1606 313.0646 0001160 89.5397 270.5737 15.31717913 82612
Epoch: Sep 20, 2026 • Age: 11 hours

現在のステータス

高度 476.1 km
遠地点 / 近地点 N/A
速度 7.63 km/s
衛星直下点 51.74°N, 30.22°E
打ち上げ日 Apr 7, 2025
運用期間 1.4 years
タイプ internet

技術仕様

分類 Payload
質量 575.00 kg
乾燥質量 530.00 kg
長さ 0.30 m
スパン 29.00 m
形状 ? Box + pan
製造者 SPXS
バスタイプ Starlink V2MO
フェーズステータス In Orbit
所有者/国 SPXS/US

Most Searched